{"data":{"norad_id":68023,"intl_designator":"2026-040J","name":"STARLINK-36871","alt_names":[],"object_type":"PAYLOAD","status":"ACTIVE","operator":null,"country":"US","launch_date":"2026-03-01","launch_site_code":"AFWTR","launch_vehicle":null,"mission":null,"orbit_class":"UNKNOWN","rcs_meters":null,"size_class":null,"mass_kg":null,"dimensions":null,"purposes":["comms"],"wikipedia_slug":null,"has_3d_model":false,"image_url":null,"decayed_at":null,"tle_current":{"epoch":"2026-09-19T15:20:47.158944Z","epoch_age_seconds":134002,"freshness":"FRESH","line1":"1 68023U 26040J   26262.63943471  .00015157  00000+0  47079-3 0  9994","line2":"2 68023  97.2880 209.9532 0002169  92.3035 267.8456 15.33450006 31183","mean_motion":15.33450006,"eccentricity":0.0002169,"inclination_deg":97.288,"raan_deg":209.9532,"arg_perigee_deg":92.3035,"mean_anomaly_deg":267.8456,"bstar":0.00047079,"rev_number":3118,"period_min":93.905898096817,"perigee_km":464.0438891854,"apogee_km":467.01267118394,"semimajor_km":6843.6652801847,"source":"CELESTRAK","updated_at":"2026-09-20T09:00:43.743126Z"}}}